Miscellaneous Local Product
Issued by NWS Hastings, NE

Home | Current Version | Previous Version | Graphics & Text | Print | Product List | Glossary On
Versions: 1 2 3 4 5 6 7 8 9 10 11 12 13 14 15 16 17 18 19 20 21 22 23 24 25 26 27 28 29 30 31 32 33 34 35 36 37 38 39 40 41 42 43 44 45 46 47 48 49 50
000
AXUS43 KGID 281002
MISGRI

GID CWA HOURLY WEATHER ROUNDUP
NATIONAL WEATHER SERVICE HASTINGS NE
400 AM CST WED JAN 28 2015

NOTE: "FAIR" INDICATES FEW OR NO CLOUDS BELOW 12,000 FEET WITH NO
SIGNIFICANT WEATHER AND/OR OBSTRUCTIONS TO VISIBILITY.

...SOUTH CENTRAL NEBRASKA...

CITY           SKY/WX    TMP DP  RH WIND       PRES   REMARKS
GRAND ISLAND   CLEAR     27  24  89 N3        29.85F
HASTINGS       CLEAR     28  23  81 CALM      29.82F
KEARNEY        CLEAR     34  27  75 SW3       29.82F
ORD            PTCLDY    26  24  92 S5        29.82F WCI  20
YORK           CLEAR     30  27  86 SE7       29.86F WCI  23
AURORA         CLEAR     29  27  90 SE6       29.84F WCI  23
LEXINGTON      CLEAR     30  27  88 W8        29.84F WCI  23
HOLDREGE       CLEAR     31  26  83 CALM      29.82F
HEBRON         CLEAR     30  27  88 CALM      29.86F

...NEBRASKA PANHANDLE...

CITY           SKY/WX    TMP DP  RH WIND       PRES   REMARKS
CHADRON        MOCLDY    39  30  70 S6        29.86F WCI  35
ALLIANCE       CLOUDY    39  30  70 W6        29.89F WCI  35
SCOTTSBLUFF      N/A    N/A N/A N/A MISG      29.93F
SIDNEY         MOCLDY    39  27  62 NW8       29.95F WCI  33

...WESTERN AND NORTH CENTRAL NEBRASKA...

CITY           SKY/WX    TMP DP  RH WIND       PRES   REMARKS
VALENTINE      CLEAR     35  29  78 SW9       29.80F WCI  28
AINSWORTH      CLEAR     40  30  67 CALM      29.80F
ONEILL         CLEAR     34  32  93 S8        29.80F WCI  27
BROKEN BOW     CLEAR     34  29  82 N3        29.83F
IMPERIAL       PTCLDY    42  29  59 N18       29.88S
NORTH PLATTE   CLEAR     28  25  88 NW7       29.87S WCI  21
MCCOOK         PTCLDY    32  27  81 NW3       29.83F

...EASTERN NEBRASKA...

CITY           SKY/WX    TMP DP  RH WIND       PRES   REMARKS
NORFOLK        CLEAR     34  29  82 SE7       29.85F WCI  28
SO SIOUX CITY  MOCLDY    32  29  88 SE10      29.91F WCI  24
TEKAMAH        MOCLDY    34  29  82 SE8       29.92F WCI  27
COLUMBUS       CLEAR     32  23  69 E5        29.89F WCI  27
ALBION         FAIR      28  26  89 CALM      29.86F
OMAHA EPPLEY   PTCLDY    36  30  79 SE13      29.93F WCI  27
OFFUTT AFB     PTCLDY    35  29  81 E12       29.92F WCI  26
MILLARD        PTCLDY    36  30  81 CALM      29.93F
LINCOLN        PTCLDY    36  28  73 E6        29.90F WCI  31
NEBRASKA CITY  PTCLDY    36  27  71 SE10      29.93S WCI  28
BEATRICE       PTCLDY    36  29  76 E5        29.88F WCI  32
FALLS CITY     CLEAR     34  28  79 SE8       29.93F WCI  27

...NORTHERN KANSAS...

CITY           SKY/WX    TMP DP  RH WIND       PRES   REMARKS
GOODLAND       PTCLDY    37  30  75 NW13      29.86F WCI  29
HILL CITY      CLEAR     41  30  65 CALM      29.83F
NORTON         SUNNY     28  21  74 W8        29.82  WCI  20
PHILLIPSBURG   CLEAR     30  27  86 CALM      29.83F
SMITH CENTER   CLEAR     36  30  80 CALM      29.84F
BELOIT         CLEAR     30  27  86 CALM      29.84F
HAYS           CLEAR     43  28  56 S6        29.86F
RUSSELL        CLEAR     41  32  70 SW9       29.84F
CONCORDIA      CLEAR     37  32  82 E3        29.85F
SALINA         CLEAR     41  32  70 S9        29.88F
TOPEKA         CLEAR     39  28  64 SE7       29.94F WCI  34



USA.gov is the U.S. government's official web portal to all federal, state and local government web resources and services.